Back to catalog

STARLINK-3647

AliveCommunicationsVLEO
NORAD 51994·PAYLOAD·🇺🇸 United States

Launched Mar 9, 2022 from Cape Canaveral Space Force Station

Loading…

Next Passes (next 24 hours)

TLE

FreshSource: CelesTrak SupGP

Epoch: Sep 14, 2026, 13:07 UTC

1 51994C 22025AQ  26257.54701389 -.00021774  00000+0 -64350-3 0  2578
2 51994  53.1591 241.2146 0001524  83.8322 266.4944 15.34392746    12

Track STARLINK-3647 in real time with AllMySat

Download on the App Store